BLOCK DM-SL R/B 1 27953U 03044B 21061.50232095 -.00000153 00000-0 00000+0 0 9992 2 27953 0.9406 21.6999 6582087 133.3178 261.8855 2.14419988136499 GALAXY 13 (HORIZONS 1) 1 27954U 03044A 21062.12842639 .00000040 00000-0 00000+0 0 9997 2 27954 0.0269 113.8660 0001722 97.5854 228.8490 1.00272583 63786